Location: High Cliff State Park
(44.1557°N, 88.2948°W)
Time: 04:27:16
(UTC-05:00)

Amateur Radio Satellites - All Passes

Search period start: 05 July 2015 03:57
Search period end: 06 July 2015 03:57
Location: High Cliff State Park, 44.1557°N, 88.2948°W

Satellite Date Start Highest point End Downlink Frequencies (MHz)
Time Altitude Azimuth
MOZHAYETS 4 05 Jul 03:59:19 04:03:33 39° 70° (ENE) 04:07:51
Oscar 19 05 Jul 04:12:58 04:15:49 15° 300° (WNW) 04:18:27 437.125/150
Gurwin Techsat 1B 05 Jul 04:21:31 04:26:23 36° 292° (WNW) 04:31:11 435.225
ITAMSAT 1 05 Jul 04:24:16 04:29:01 36° 293° (WNW) 04:33:42 435.822/435.867
HORYU 2 05 Jul 04:28:37 04:32:55 46° 99° (E) 04:37:15 437.375
STARS 05 Jul 04:30:12 04:33:17 18° 269° (W) 04:36:14 437.465
Cosmos 2491 05 Jul 04:46:07 04:52:07 20° 281° (W) 04:57:40 435.465 / 435.565
Cosmos 2504 05 Jul 04:53:04 04:58:06 23° 83° (E) 05:03:23 435.465 / 435.565
JAS-2 05 Jul 05:13:16 05:19:38 55° 289° (WNW) 05:26:43 435.910
YUBILEINY 05 Jul 05:20:56 05:28:32 31° 295° (WNW) 05:35:59 435.215
MOZHAYETS 4 05 Jul 05:37:17 05:40:56 23° 268° (W) 05:44:31
STRAND 1 05 Jul 05:39:07 05:42:20 17° 61° (ENE) 05:45:43 437.568
AO-7 05 Jul 05:40:23 05:48:46 75° 292° (WNW) 05:57:04 29.400- 29.500
Cubesat XI-IV 05 Jul 06:00:01 06:02:58 15° 88° (E) 06:06:10 437.490
PRISM 05 Jul 06:02:09 06:05:12 20° 66° (ENE) 06:08:22 437.425
CUBESAT XI-V 05 Jul 06:04:17 06:08:57 66° 74° (ENE) 06:13:40 437.345
HORYU 2 05 Jul 06:06:01 06:09:17 20° 295° (WNW) 06:12:24 437.375
RS-15 05 Jul 06:13:49 06:23:11 29° 345° (NNW) 06:32:48 29.354- 29.394
O/OREOS (USA 219) 05 Jul 06:22:03 06:23:24 11° 99° (E) 06:24:59 437.305
BEESAT 3 05 Jul 06:22:07 06:24:18 15° 111° (ESE) 06:26:38 437.485
BEESAT 2 05 Jul 06:35:02 06:37:28 16° 112° (ESE) 06:40:04 435.950
DANDE 05 Jul 06:39:56 06:41:22 11° 88° (E) 06:43:11 436.750
Cosmos 2504 05 Jul 06:42:53 06:49:45 62° 282° (WNW) 06:56:39 435.465 / 435.565
JAS-2 05 Jul 07:01:55 07:03:42 11° 306° (NW) 07:05:06 435.910
CUTE-I 05 Jul 07:03:57 07:09:14 56° 100° (E) 07:14:30 437.470
M-CUBED/EXP-1 PRIME 05 Jul 07:08:44 07:09:25 11° 56° (ENE) 07:10:15 437.505
CUSAT 1 05 Jul 07:10:04 07:15:00 26° 95° (E) 07:19:08 437.405
STRAND 1 05 Jul 07:15:54 07:21:02 70° 258° (WSW) 07:26:13 437.568
ISS 05 Jul 07:30:35 07:32:56 19° 136° (SE) 07:35:21 145.825
AO-7 05 Jul 07:34:40 07:40:21 20° 312° (NW) 07:45:43 29.400- 29.500
PRISM 05 Jul 07:36:30 07:40:25 38° 262° (W) 07:44:22 437.425
Cubesat XI-IV 05 Jul 07:38:22 07:43:45 74° 287° (WNW) 07:49:06 437.490
CUBESAT XI-V 05 Jul 07:44:19 07:46:56 14° 273° (W) 07:49:21 437.345
VERMONT LUNAR 05 Jul 07:51:40 07:54:11 22° 161° (SSE) 07:56:43 437.305
AIST 2 05 Jul 07:57:09 08:00:48 29° 115° (ESE) 08:04:32 435.215
BEESAT 3 05 Jul 07:57:47 08:01:49 60° 307° (NW) 08:05:54 437.485
O/OREOS (USA 219) 05 Jul 07:57:49 08:02:16 73° 295° (WNW) 08:06:45 437.305
GONETS M04 05 Jul 08:00:58 08:07:39 26° 82° (E) 08:14:35
AUBIESAT-1 05 Jul 08:05:33 08:08:41 40° 66° (ENE) 08:12:00 437.475
BEESAT 2 05 Jul 08:11:06 08:15:09 56° 309° (NW) 08:19:14 435.950
BRITE-PL 05 Jul 08:11:15 08:14:54 27° 93° (E) 08:18:29 437.365/2234.400
DANDE 05 Jul 08:17:12 08:24:19 74° 99° (E) 08:29:43 436.750
PHONESAT 2.4 05 Jul 08:21:44 08:22:57 12° 151° (SSE) 08:24:15 2401.200-2431.200
DOVE 4 05 Jul 08:24:14 08:26:10 13° 89° (E) 08:28:19 437.250
RS-15 05 Jul 08:30:33 08:40:14 30° 19° (NNE) 08:50:24 29.354- 29.394
CUTE 1.7 + AOD 2 05 Jul 08:32:24 08:34:54 16° 89° (E) 08:37:35 437.475
CANX-2 05 Jul 08:35:31 08:38:30 19° 91° (E) 08:41:36 2200.000
M-CUBED/EXP-1 PRIME 05 Jul 08:40:33 08:43:48 56° 254° (WSW) 08:47:13 437.505
Cosmos 2504 05 Jul 08:42:17 08:43:49 10° 307° (NW) 08:44:53 435.465 / 435.565
CUTE-I 05 Jul 08:44:51 08:48:58 22° 298° (WNW) 08:52:56 437.470
CUSAT 1 05 Jul 08:51:37 08:57:33 43° 283° (WNW) 09:02:05 437.405
HO-68 05 Jul 09:02:26 09:09:05 41° 97° (E) 09:15:48 435.675
CINEMA 3 05 Jul 09:03:29 09:06:06 17° 91° (E) 09:08:54 145.822/145.860
ISS 05 Jul 09:05:51 09:09:04 62° 332° (NNW) 09:12:18 145.825
SEEDS 05 Jul 09:18:19 09:22:18 38° 97° (E) 09:26:19 437.485
GOMX 1 05 Jul 09:20:15 09:24:29 90° 294° (WNW) 09:28:38 467.674
ANTELSAT 05 Jul 09:20:52 09:23:09 15° 63° (ENE) 09:25:35 437.575/2403.000
Cubesat XI-IV 05 Jul 09:21:00 09:23:02 12° 304° (NW) 09:24:48 437.490
AAUSAT CUBESAT 2 05 Jul 09:27:26 09:31:15 33° 96° (E) 09:35:05 437.432
VERMONT LUNAR 05 Jul 09:27:46 09:30:44 41° 177° (S) 09:33:43 437.305
TIGRISAT 05 Jul 09:32:10 09:35:03 18° 65° (ENE) 09:38:01 435.000
AIST 2 05 Jul 09:35:23 09:39:18 34° 313° (NW) 09:43:14 435.215
Cosmos 2499 05 Jul 09:35:43 09:39:50 17° 80° (E) 09:44:21 435.465 / 435.565
DELFI C3 05 Jul 09:38:35 09:40:34 14° 89° (E) 09:42:43 145.870
BEESAT 3 05 Jul 09:39:19 09:40:40 11° 329° (NNW) 09:41:54 437.485
POLYITAN 1 05 Jul 09:41:34 09:42:02 10° 61° (ENE) 09:42:44 437.675
O/OREOS (USA 219) 05 Jul 09:41:40 09:42:37 10° 316° (NW) 09:43:22 437.305
AUBIESAT-1 05 Jul 09:42:19 09:43:48 12° 265° (W) 09:45:11 437.475
ZACube-1 05 Jul 09:45:13 09:47:23 14° 89° (E) 09:49:47 437.345
CUBEBUG 2 05 Jul 09:45:44 09:49:04 23° 93° (E) 09:52:33 437.445
BRITE-PL 05 Jul 09:49:46 09:53:28 27° 292° (WNW) 09:56:57 437.365/2234.400
Oscar 11 05 Jul 09:51:05 09:54:48 28° 94° (E) 09:58:34 145.826/435.025
BEESAT 2 05 Jul 09:53:00 09:54:09 11° 329° (NNW) 09:55:11 435.950
COMPASS 1 05 Jul 09:54:01 09:58:16 77° 102° (ESE) 10:02:30 437.405
GONETS M04 05 Jul 09:55:00 10:03:48 71° 282° (WNW) 10:12:33
PHONESAT 2.4 05 Jul 09:57:17 10:00:23 32° 166° (SSE) 10:03:32 2401.200-2431.200
DOVE 4 05 Jul 10:00:20 10:04:24 53° 287° (WNW) 10:08:26 437.250
DANDE 05 Jul 10:03:08 10:07:43 19° 292° (WNW) 10:11:24 436.750
CUTE 1.7 + AOD 2 05 Jul 10:07:00 10:11:10 50° 287° (WNW) 10:15:19 437.475
QB50P2 05 Jul 10:08:19 10:11:21 20° 66° (ENE) 10:14:29 145.880/145.840
POPSAT HIP 1 05 Jul 10:08:51 10:11:51 19° 66° (ENE) 10:14:57 437.405
CANX-2 05 Jul 10:10:35 10:14:39 42° 288° (WNW) 10:18:41 2200.000
UNISAT 6 05 Jul 10:10:53 10:14:58 46° 72° (ENE) 10:19:04 437.425
FUNcube-1 05 Jul 10:19:45 10:23:32 32° 96° (E) 10:27:25 145.935
UWE-3 05 Jul 10:34:25 10:38:36 61° 101° (E) 10:42:52 435.000/436.395/437.385
CINEMA 3 05 Jul 10:39:37 10:43:36 44° 288° (WNW) 10:47:37 145.822/145.860
ISS 05 Jul 10:43:15 10:45:55 23° 352° (N) 10:48:35 145.825
RS-15 05 Jul 10:43:49 10:55:24 67° 48° (NE) 11:07:30 29.354- 29.394
QB50P1 05 Jul 10:46:32 10:50:36 47° 72° (ENE) 10:54:41 145.935-145.965
HO-68 05 Jul 10:50:12 10:56:53 43° 296° (WNW) 11:03:28 435.675
SEEDS 05 Jul 10:54:38 10:57:53 21° 293° (WNW) 11:01:01 437.485
ANTELSAT 05 Jul 10:55:18 10:59:32 58° 259° (W) 11:03:45 437.575/2403.000
VELOX 1 05 Jul 10:59:31 11:02:24 17° 91° (E) 11:05:26 145.980
NANOSAT C BR1 05 Jul 11:00:14 11:04:26 66° 74° (ENE) 11:08:38 145.865
AAUSAT CUBESAT 2 05 Jul 11:03:19 11:06:42 23° 293° (WNW) 11:10:02 437.432
VERMONT LUNAR 05 Jul 11:04:32 11:07:21 30° 194° (SSW) 11:10:11 437.305
DX 1 05 Jul 11:04:43 11:08:42 34° 97° (E) 11:12:40 434.975-435.025
DUCHIFAT 1 05 Jul 11:06:49 11:11:03 76° 75° (ENE) 11:15:17 145.980
TIGRISAT 05 Jul 11:07:25 11:11:31 44° 261° (W) 11:15:37 435.000
DELFI C3 05 Jul 11:12:02 11:16:01 53° 287° (WNW) 11:19:59 145.870
50 SAT 05 Jul 11:12:06 11:15:24 26° 95° (E) 11:18:44 437.505
POLYITAN 1 05 Jul 11:13:06 11:17:21 87° 255° (WSW) 11:21:36 437.675
BUGSAT 1 05 Jul 11:19:41 11:23:53 70° 76° (ENE) 11:28:06 437.445
ZACube-1 05 Jul 11:20:00 11:24:09 54° 286° (WNW) 11:28:20 437.345
CUBEBUG 2 05 Jul 11:22:04 11:25:52 33° 290° (WNW) 11:29:40 437.445
UKube-1 05 Jul 11:24:04 11:28:18 51° 100° (E) 11:32:30 .
Cosmos 2499 05 Jul 11:25:03 11:32:06 81° 279° (W) 11:39:20 435.465 / 435.565
Oscar 11 05 Jul 11:27:10 11:30:58 29° 291° (WNW) 11:34:42 145.826/435.025
HUMSAT D 05 Jul 11:31:10 11:35:21 87° 109° (ESE) 11:39:34 437.325/437.525
COMPASS 1 05 Jul 11:31:51 11:33:24 12° 298° (WNW) 11:34:44 437.405
PHONESAT 2.4 05 Jul 11:34:48 11:38:06 45° 182° (S) 11:41:25 2401.200-2431.200
QB50P2 05 Jul 11:42:58 11:47:00 40° 262° (W) 11:51:01 145.880/145.840
POPSAT HIP 1 05 Jul 11:43:26 11:47:28 41° 262° (W) 11:51:30 437.405
AISAT 05 Jul 11:45:55 11:50:15 55° 100° (E) 11:54:35 437.250
UNISAT 6 05 Jul 11:49:13 11:52:03 17° 269° (W) 11:54:45 437.425
FUNcube-1 05 Jul 11:56:19 11:59:46 24° 292° (WNW) 12:03:10 145.935
GONETS M04 05 Jul 11:57:25 12:02:40 16° 306° (NW) 12:07:26
CUBEBUG 1 05 Jul 12:00:52 12:05:02 43° 98° (E) 12:09:11 437.445
UWE-3 05 Jul 12:12:29 12:14:44 14° 296° (WNW) 12:16:50 435.000/436.395/437.385
Oscar 19 05 Jul 12:12:58 12:16:30 20° 62° (ENE) 12:20:12 437.125/150
ISS 05 Jul 12:20:16 12:23:01 25° 12° (NNE) 12:25:47 145.825
ESTCUBE 1 05 Jul 12:21:20 12:25:55 84° 104° (ESE) 12:30:27 437.505/2401.250
QB50P1 05 Jul 12:23:59 12:26:46 16° 270° (W) 12:29:23 145.935-145.965
VELOX 1 05 Jul 12:35:01 12:39:17 47° 288° (WNW) 12:43:29 145.980
NANOSAT C BR1 05 Jul 12:39:07 12:40:47 12° 272° (W) 12:42:13 145.865
DX 1 05 Jul 12:41:16 12:44:48 24° 294° (WNW) 12:48:15 434.975-435.025
VERMONT LUNAR 05 Jul 12:42:55 12:43:43 11° 209° (SSW) 12:44:26 437.305
50 SAT 05 Jul 12:46:41 12:49:58 25° 291° (WNW) 12:53:12 437.505
RS-15 05 Jul 12:56:46 13:07:29 42° 250° (WSW) 13:18:19 29.354- 29.394
BUGSAT 1 05 Jul 12:58:39 12:59:54 11° 273° (W) 13:00:54 437.445
SPROUT 05 Jul 12:59:01 13:03:14 54° 100° (E) 13:07:25 437.525
UKube-1 05 Jul 13:01:12 13:04:04 17° 297° (WNW) 13:06:48 .
AO-7 05 Jul 13:04:01 13:05:51 11° 38° (NE) 13:08:06 29.400- 29.500
PHONESAT 2.4 05 Jul 13:12:50 13:15:46 26° 199° (SSW) 13:18:42 2401.200-2431.200
Cosmos 2499 05 Jul 13:22:46 13:26:45 15° 303° (WNW) 13:30:26 435.465 / 435.565
AISAT 05 Jul 13:23:37 13:26:27 17° 297° (WNW) 13:29:08 437.250
YUBILEINY 05 Jul 13:30:54 13:38:34 33° 66° (ENE) 13:46:23 435.215
TISAT 1 05 Jul 13:36:39 13:40:52 89° 284° (WNW) 13:45:02 437.305
CUBEBUG 1 05 Jul 13:37:55 13:41:08 20° 295° (WNW) 13:44:13 437.445
JAS-2 05 Jul 13:46:54 13:48:45 12° 55° (NE) 13:50:54 435.910
Oscar 19 05 Jul 13:50:23 13:55:28 59° 259° (W) 14:00:33 437.125/150
ISS 05 Jul 13:56:31 13:59:46 83° 33° (NNE) 14:03:00 145.825
Cosmos 2491 05 Jul 13:56:54 14:02:46 21° 79° (E) 14:09:01 435.465 / 435.565
ESTCUBE 1 05 Jul 14:00:21 14:02:10 12° 300° (WNW) 14:03:47 437.505/2401.250
Gurwin Techsat 1B 05 Jul 14:04:04 14:09:15 57° 72° (ENE) 14:14:30 435.225
ITAMSAT 1 05 Jul 14:04:08 14:09:12 56° 72° (ENE) 14:14:21 435.822/435.867
BEESAT 05 Jul 14:30:47 14:35:30 54° 100° (E) 14:40:12 436.000
SPROUT 05 Jul 14:36:17 14:38:55 16° 296° (WNW) 14:41:25 437.525
BEESAT 3 05 Jul 14:37:48 14:40:41 19° 39° (NE) 14:43:36 437.485
AIST 1 05 Jul 14:45:03 14:47:37 16° 86° (E) 14:50:24
SWISSCUBE 05 Jul 14:46:30 14:51:21 84° 104° (ESE) 14:56:09 437.505
AO-7 05 Jul 14:48:57 14:56:33 42° 60° (ENE) 15:04:17 29.400- 29.500
PCSat 05 Jul 14:50:55 14:54:57 22° 108° (ESE) 14:59:09 145.827
BEESAT 2 05 Jul 14:51:27 14:54:29 20° 40° (NE) 14:57:33 435.950
ITUPSAT 1 05 Jul 14:52:21 14:57:12 86° 100° (E) 15:02:02 437.325
YUBILEINY 05 Jul 15:27:24 15:35:57 59° 268° (W) 15:44:28 435.215
KKS-1 05 Jul 15:27:31 15:31:37 36° 97° (E) 15:35:43 437.445
JAS-2 05 Jul 15:27:49 15:32:59 82° 76° (ENE) 15:38:30 435.910
HORYU 2 05 Jul 15:28:13 15:32:29 52° 72° (ENE) 15:36:48 437.375
ISS 05 Jul 15:34:01 15:35:47 14° 227° (SW) 15:37:27 145.825
ITAMSAT 1 05 Jul 15:45:17 15:49:08 20° 269° (W) 15:52:51 435.822/435.867
Gurwin Techsat 1B 05 Jul 15:45:48 15:49:42 20° 270° (W) 15:53:26 435.225
Cosmos 2491 05 Jul 15:49:47 15:58:39 85° 280° (W) 16:07:31 435.465 / 435.565
BEESAT 05 Jul 16:09:33 16:12:59 19° 297° (WNW) 16:16:17 436.000
BEESAT 3 05 Jul 16:15:00 16:19:01 60° 239° (WSW) 16:22:58 437.485
STARS 05 Jul 16:16:33 16:20:57 74° 103° (ESE) 16:25:18 437.465
AIST 2 05 Jul 16:17:03 16:20:53 32° 46° (NE) 16:24:40 435.215
AIST 1 05 Jul 16:20:38 16:24:55 48° 283° (WNW) 16:29:13
Cosmos 2504 05 Jul 16:25:55 16:33:00 45° 74° (ENE) 16:40:38 435.465 / 435.565
SWISSCUBE 05 Jul 16:26:15 16:28:35 13° 300° (WNW) 16:30:43 437.505
O/OREOS (USA 219) 05 Jul 16:27:15 16:31:16 31° 57° (ENE) 16:35:21 437.305
SO-50 05 Jul 16:27:27 16:31:48 38° 117° (ESE) 16:36:21 436.795
BEESAT 2 05 Jul 16:28:52 16:32:53 55° 240° (WSW) 16:36:49 435.950
ITUPSAT 1 05 Jul 16:32:12 16:34:28 13° 301° (WNW) 16:36:31 437.325
PCSat 05 Jul 16:32:40 16:38:00 57° 305° (NW) 16:43:23 145.827
AO-7 05 Jul 16:41:12 16:49:16 50° 260° (W) 16:57:20 29.400- 29.500
CUTE-I 05 Jul 16:50:04 16:53:13 17° 60° (ENE) 16:56:35 437.470
KKS-1 05 Jul 17:04:31 17:08:05 24° 294° (WNW) 17:11:33 437.445
HORYU 2 05 Jul 17:06:40 17:09:30 16° 270° (W) 17:12:09 437.375
JAS-2 05 Jul 17:17:03 17:19:10 12° 276° (W) 17:20:58 435.910
Cubesat XI-IV 05 Jul 17:22:55 17:27:30 30° 66° (ENE) 17:32:12 437.490
YUBILEINY 05 Jul 17:29:24 17:31:04 10° 288° (WNW) 17:32:00 435.215
MOZHAYETS 4 05 Jul 17:29:29 17:34:10 77° 102° (ESE) 17:38:49
Cosmos 2491 05 Jul 17:50:49 17:57:07 20° 303° (WNW) 18:03:01 435.465 / 435.565
STARS 05 Jul 17:54:51 17:56:51 13° 299° (WNW) 17:58:40 437.465
AIST 2 05 Jul 17:55:43 17:59:23 29° 244° (WSW) 18:02:58 435.215
CUBESAT XI-V 05 Jul 18:00:57 18:03:31 15° 88° (E) 18:06:17 437.345
O/OREOS (USA 219) 05 Jul 18:06:43 18:10:40 29° 255° (WSW) 18:14:33 437.305
SO-50 05 Jul 18:08:04 18:12:26 33° 317° (NW) 18:16:52 436.795
GONETS M04 05 Jul 18:09:01 18:12:52 14° 51° (NE) 18:17:16
Cosmos 2504 05 Jul 18:18:18 18:25:09 39° 272° (W) 18:32:20 435.465 / 435.565
PCSat 05 Jul 18:19:54 18:22:42 14° 328° (NNW) 18:25:20 145.827
CUTE-I 05 Jul 18:27:20 18:32:43 79° 256° (WSW) 18:38:08 437.470
GOMX 1 05 Jul 18:53:48 18:56:30 15° 64° (ENE) 18:59:18 467.674
DANDE 05 Jul 18:58:25 19:01:05 36° 74° (ENE) 19:03:31 436.750
Cubesat XI-IV 05 Jul 19:02:28 19:07:30 39° 263° (W) 19:12:32 437.490
MOZHAYETS 4 05 Jul 19:08:29 19:10:50 14° 299° (WNW) 19:12:59
PRISM 05 Jul 19:17:23 19:20:51 25° 94° (E) 19:24:20 437.425
BRITE-PL 05 Jul 19:22:24 19:27:29 44° 72° (ENE) 19:32:19 437.365/2234.400
STRAND 1 05 Jul 19:25:07 19:29:50 35° 96° (E) 19:34:32 437.568
CUTE 1.7 + AOD 2 05 Jul 19:27:28 19:29:41 14° 64° (ENE) 19:32:04 437.475
CUSAT 1 05 Jul 19:27:58 19:30:22 31° 264° (W) 19:32:44 437.405
CANX-2 05 Jul 19:30:31 19:33:12 17° 65° (ENE) 19:36:00 2200.000
DOVE 4 05 Jul 19:30:46 19:34:09 20° 67° (ENE) 19:37:32 437.250
HO-68 05 Jul 19:32:48 19:39:08 37° 62° (ENE) 19:45:36 435.675
CUBESAT XI-V 05 Jul 19:36:48 19:41:28 61° 286° (WNW) 19:46:02 437.345
GONETS M04 05 Jul 20:03:24 20:12:02 64° 77° (ENE) 20:20:39
CINEMA 3 05 Jul 20:06:50 20:10:02 20° 67° (ENE) 20:13:15 145.822/145.860
SEEDS 05 Jul 20:11:53 20:15:36 33° 70° (ENE) 20:19:24 437.485
CUTE-I 05 Jul 20:13:06 20:13:49 10° 276° (W) 20:14:08 437.470
AAUSAT CUBESAT 2 05 Jul 20:19:49 20:23:18 27° 69° (ENE) 20:26:52 437.432
DELFI C3 05 Jul 20:28:38 20:29:44 11° 62° (ENE) 20:31:02 145.870
GOMX 1 05 Jul 20:29:06 20:34:14 73° 259° (W) 20:39:01 467.674
ZACube-1 05 Jul 20:43:21 20:45:32 14° 64° (ENE) 20:47:51 437.345
CUBEBUG 2 05 Jul 20:45:49 20:49:11 24° 68° (ENE) 20:52:35 437.445
COMPASS 1 05 Jul 20:46:26 20:50:32 62° 74° (ENE) 20:54:40 437.405
Oscar 11 05 Jul 20:47:30 20:51:04 26° 68° (ENE) 20:54:43 145.826/435.025
PRISM 05 Jul 20:52:36 20:56:19 30° 292° (WNW) 20:59:57 437.425
CUTE 1.7 + AOD 2 05 Jul 21:01:01 21:05:10 58° 259° (W) 21:09:21 437.475
BRITE-PL 05 Jul 21:01:39 21:06:09 26° 267° (W) 21:10:21 437.365/2234.400
STRAND 1 05 Jul 21:04:27 21:08:58 31° 294° (WNW) 21:13:25 437.568
CANX-2 05 Jul 21:04:43 21:08:47 48° 261° (W) 21:12:54 2200.000
DOVE 4 05 Jul 21:07:01 21:11:41 47° 261° (W) 21:16:06 437.250
Cosmos 2499 05 Jul 21:12:57 21:20:12 40° 71° (ENE) 21:28:02 435.465 / 435.565
FUNcube-1 05 Jul 21:17:13 21:20:52 30° 70° (ENE) 21:24:32 145.935
AUBIESAT-1 05 Jul 21:17:57 21:21:42 30° 101° (ESE) 21:25:43 437.475
HO-68 05 Jul 21:19:52 21:26:45 48° 261° (W) 21:33:37 435.675
UWE-3 05 Jul 21:33:02 21:37:11 59° 74° (ENE) 21:41:18 435.000/436.395/437.385
CINEMA 3 05 Jul 21:42:47 21:47:03 41° 262° (W) 21:51:08 145.822/145.860
SEEDS 05 Jul 21:48:07 21:51:29 23° 267° (W) 21:54:47 437.485
ESTCUBE 1 05 Jul 21:49:07 21:50:29 11° 60° (ENE) 21:52:04 437.505/2401.250
M-CUBED/EXP-1 PRIME 05 Jul 21:53:16 21:57:31 80° 108° (ESE) 22:02:04 437.505
AAUSAT CUBESAT 2 05 Jul 21:55:19 21:58:52 27° 266° (W) 22:02:24 437.432
50 SAT 05 Jul 21:58:18 22:00:57 19° 67° (ENE) 22:03:43 437.505
VELOX 1 05 Jul 21:58:38 22:01:52 20° 65° (ENE) 22:05:13 145.980
DELFI C3 05 Jul 22:00:18 22:04:17 72° 258° (WSW) 22:08:20 145.870
GONETS M04 05 Jul 22:01:06 22:08:21 30° 277° (W) 22:15:19
DX 1 05 Jul 22:01:39 22:05:41 37° 69° (ENE) 22:09:45 434.975-435.025
ZACube-1 05 Jul 22:17:22 22:21:30 57° 260° (W) 22:25:37 437.345
UKube-1 05 Jul 22:20:07 22:24:20 53° 72° (ENE) 22:28:35 .
CUBEBUG 2 05 Jul 22:21:56 22:25:47 32° 264° (W) 22:29:32 437.445
Oscar 11 05 Jul 22:23:21 22:27:11 30° 265° (W) 22:30:58 145.826/435.025
HUMSAT D 05 Jul 22:24:12 22:28:16 73° 75° (ENE) 22:32:22 437.325/437.525
COMPASS 1 05 Jul 22:24:59 22:26:42 12° 273° (W) 22:28:13 437.405
AISAT 05 Jul 22:44:52 22:49:16 60° 73° (ENE) 22:53:41 437.250
ANTELSAT 05 Jul 22:45:47 22:49:23 25° 94° (E) 22:53:07 437.575/2403.000
AUBIESAT-1 05 Jul 22:52:40 22:56:24 30° 296° (WNW) 23:00:17 437.475
DUCHIFAT 1 05 Jul 22:52:41 22:53:26 11° 87° (E) 22:54:27 145.980
FUNcube-1 05 Jul 22:53:47 22:57:14 24° 266° (W) 23:00:36 145.935
TIGRISAT 05 Jul 22:57:16 23:01:09 31° 96° (E) 23:05:09 435.000
CUBEBUG 1 05 Jul 22:58:14 23:02:26 44° 71° (ENE) 23:06:40 437.445
POLYITAN 1 05 Jul 22:58:34 23:00:35 14° 89° (E) 23:02:49 437.675
Cosmos 2499 05 Jul 23:06:04 23:13:29 46° 270° (W) 23:21:20 435.465 / 435.565
UWE-3 05 Jul 23:12:15 23:14:10 12° 272° (W) 23:15:54 435.000/436.395/437.385
SO-50 05 Jul 23:17:56 23:20:24 14° 28° (NNE) 23:23:00 436.795
ESTCUBE 1 05 Jul 23:22:10 23:26:43 89° 255° (WSW) 23:31:18 437.505/2401.250
QB50P2 05 Jul 23:26:49 23:30:25 27° 95° (E) 23:34:04 145.880/145.840
POPSAT HIP 1 05 Jul 23:27:11 23:30:45 27° 95° (E) 23:34:21 437.405
M-CUBED/EXP-1 PRIME 05 Jul 23:29:52 23:31:54 13° 302° (WNW) 23:33:49 437.505
50 SAT 05 Jul 23:31:51 23:35:23 34° 263° (W) 23:38:54 437.505
VELOX 1 05 Jul 23:33:53 23:38:09 44° 261° (W) 23:42:26 145.980
PCSat 05 Jul 23:36:02 23:40:42 29° 45° (NE) 23:45:25 145.827
UNISAT 6 05 Jul 23:37:19 23:41:44 86° 103° (ESE) 23:46:13 437.425
DX 1 05 Jul 23:38:36 23:42:03 22° 267° (W) 23:45:26 434.975-435.025
SPROUT 05 Jul 23:54:26 23:58:36 50° 73° (ENE) 00:02:48 437.525
UKube-1 05 Jul 23:58:11 00:00:50 15° 270° (W) 00:03:20 .
Cosmos 2491 06 Jul 00:05:27 00:07:20 11° 47° (NE) 00:09:52 435.465 / 435.565
QB50P1 06 Jul 00:05:36 00:09:49 72° 101° (ESE) 00:14:01 145.935-145.965
NANOSAT C BR1 06 Jul 00:19:13 00:23:26 82° 284° (WNW) 00:27:37 145.865
SWISSCUBE 06 Jul 00:19:18 00:21:53 15° 61° (ENE) 00:24:40 437.505
ANTELSAT 06 Jul 00:22:16 00:26:14 33° 290° (WNW) 00:30:14 437.575/2403.000
AISAT 06 Jul 00:23:48 00:26:18 14° 271° (W) 00:28:36 437.250
ITUPSAT 1 06 Jul 00:25:15 00:27:57 16° 61° (ENE) 00:30:50 437.325
DUCHIFAT 1 06 Jul 00:25:38 00:29:49 71° 286° (WNW) 00:33:59 145.980
TISAT 1 06 Jul 00:29:51 00:34:06 83° 74° (ENE) 00:38:21 437.305
POLYITAN 1 06 Jul 00:32:47 00:36:55 56° 287° (WNW) 00:41:02 437.675
TIGRISAT 06 Jul 00:34:08 00:37:50 27° 292° (WNW) 00:41:32 435.000
BUGSAT 1 06 Jul 00:35:47 00:39:52 82° 286° (WNW) 00:43:53 437.445
CUBEBUG 1 06 Jul 00:35:48 00:39:02 19° 269° (W) 00:42:09 437.445
SO-50 06 Jul 00:57:12 01:02:06 55° 50° (NE) 01:06:55 436.795
QB50P2 06 Jul 01:02:40 01:06:17 27° 292° (WNW) 01:09:50 145.880/145.840
POPSAT HIP 1 06 Jul 01:02:58 01:06:36 28° 292° (WNW) 01:10:10 437.405
RS-15 06 Jul 01:11:14 01:20:09 32° 106° (ESE) 01:29:37 29.354- 29.394
UNISAT 6 06 Jul 01:16:32 01:17:58 11° 299° (WNW) 01:19:09 437.425
PCSat 06 Jul 01:19:09 01:24:24 51° 245° (WSW) 01:29:37 145.827
SPROUT 06 Jul 01:32:19 01:35:02 16° 270° (W) 01:37:34 437.525
BEESAT 06 Jul 01:38:35 01:43:20 74° 74° (ENE) 01:48:09 436.000
QB50P1 06 Jul 01:43:26 01:45:10 12° 298° (WNW) 01:46:44 145.935-145.965
SWISSCUBE 06 Jul 01:54:26 01:59:13 73° 258° (WSW) 02:04:03 437.505
Cosmos 2491 06 Jul 01:58:30 02:06:59 53° 74° (ENE) 02:15:28 435.465 / 435.565
Oscar 19 06 Jul 02:00:22 02:05:15 43° 98° (E) 02:10:08 437.125/150
ITUPSAT 1 06 Jul 02:00:33 02:05:20 70° 258° (WSW) 02:10:10 437.325
ITAMSAT 1 06 Jul 02:16:34 02:19:53 17° 89° (E) 02:23:23 435.822/435.867
Gurwin Techsat 1B 06 Jul 02:19:33 02:23:21 20° 90° (E) 02:27:18 435.225
AIST 1 06 Jul 02:26:10 02:30:22 46° 76° (ENE) 02:34:33
KKS-1 06 Jul 02:27:01 02:31:11 40° 70° (ENE) 02:35:22 437.445
YUBILEINY 06 Jul 02:34:21 02:41:51 35° 85° (E) 02:49:31 435.215
JAS-2 06 Jul 02:36:30 02:38:30 12° 84° (E) 02:41:07 435.910
SO-50 06 Jul 02:38:29 02:42:19 22° 248° (WSW) 02:45:59 436.795
MOZHAYETS 4 06 Jul 02:59:50 03:00:44 11° 59° (ENE) 03:01:52
STARS 06 Jul 03:14:38 03:19:02 79° 77° (ENE) 03:23:27 437.465
BEESAT 06 Jul 03:19:32 03:21:49 13° 273° (W) 03:23:51 436.000
RS-15 06 Jul 03:20:42 03:31:38 75° 309° (NW) 03:43:01 29.354- 29.394
Oscar 19 06 Jul 03:40:10 03:44:25 26° 295° (WNW) 03:48:34 437.125/150
